N1JOT Weather Reports


Display with metric or nautical units.
time (UTC)temp
F
wind
direction
speed
MPH
gust
MPH
rain 1hr
in
rain 24hr
in
rain mn
in
humidity
%
barometer
mb
20260508065059 43 0 0.0 0.0 0.00 0.39 0.00 66 1008.0
20260508064559 43 0 0.0 0.0 0.00 0.39 0.00 65 1008.1
20260508064102 43 0 0.0 0.0 0.00 0.39 0.00 64 1008.1
20260508063602 44 0 0.0 0.0 0.00 0.39 0.00 64 1008.2
20260508063139 44 0 0.0 0.0 0.00 0.39 0.00 62 1008.1
20260508062603 44 0 0.0 0.0 0.00 0.39 0.00 62 1008.2
20260508062100 45 0 0.0 0.0 0.00 0.39 0.00 60 1008.1
20260508061558 45 0 0.0 1.0 0.00 0.39 0.00 61 1008.1
20260508061100 45 0 0.0 3.0 0.00 0.39 0.00 60 1008.1
20260508060557 46 0 0.0 3.0 0.00 0.39 0.00 59 1008.1
20260508060100 46 0 0.0 6.0 0.00 0.39 0.00 56 1008.1
20260508055601 46 0 1.0 6.0 0.00 0.39 0.00 55 1008.1
20260508055058 47 0 0.0 3.0 0.00 0.39 0.00 58 1008.1
20260508054557 47 277 0.0 4.0 0.00 0.39 0.00 54 1008.1
20260508054100 47 0 0.0 4.0 0.00 0.39 0.00 53 1008.1
20260508053557 48 0 0.0 2.0 0.00 0.39 0.00 54 1008.1
20260508053102 48 269 0.0 5.0 0.00 0.39 0.00 51 1008.0
20260508052559 49 281 1.0 5.0 0.00 0.39 0.00 50 1008.0
20260508052057 49 258 1.0 5.0 0.00 0.39 0.00 49 1008.0
20260508051619 49 261 1.0 4.0 0.00 0.39 0.00 49 1008.0
20260508051057 49 0 1.0 4.0 0.00 0.39 0.00 50 1008.0
20260508050558 50 248 1.0 4.0 0.00 0.39 0.00 48 1008.0
20260508050058 50 221 0.0 7.0 0.00 0.39 0.00 49 1008.0
20260508045558 50 305 2.0 7.0 0.00 0.39 0.00 48 1008.2
20260508045058 50 0 1.0 4.0 0.00 0.39 0.00 48 1008.2
20260508044558 50 292 0.0 7.0 0.00 0.39 0.00 48 1008.1
20260508044057 50 300 2.0 7.0 0.00 0.39 0.00 48 1008.1
20260508043556 50 315 1.0 5.0 0.00 0.39 0.00 49 1008.2
20260508043057 50 285 2.0 5.0 0.00 0.39 0.00 48 1008.2
20260508042557 50 245 1.0 6.0 0.00 0.39 0.00 49 1008.2
20260508042056 50 0 1.0 6.0 0.00 0.39 0.00 48 1008.2
20260508041558 50 269 1.0 3.0 0.00 0.39 0.00 50 1008.4
20260508041056 50 0 0.0 3.0 0.00 0.39 0.00 48 1008.5
20260508040556 50 261 1.0 3.0 0.00 0.39 0.00 48 1008.3
20260508040057 50 337 1.0 4.0 0.00 0.39 0.00 49 1008.4
20260508035556 50 238 1.0 4.0 0.00 0.39 0.39 49 1008.5
20260508035057 50 42 1.0 4.0 0.00 0.39 0.39 49 1008.4
20260508034558 51 255 1.0 3.0 0.00 0.39 0.39 48 1008.4
20260508034056 50 242 1.0 3.0 0.00 0.39 0.39 49 1008.4
20260508033556 51 0 1.0 2.0 0.00 0.39 0.39 50 1008.4
20260508033058 51 0 1.0 3.0 0.00 0.39 0.39 51 1008.3
20260508032557 51 225 0.0 3.0 0.00 0.39 0.39 51 1008.4
20260508032056 51 233 0.0 3.0 0.00 0.39 0.39 50 1008.4
20260508031603 51 348 0.0 3.0 0.00 0.39 0.39 50 1008.4
20260508031057 51 232 0.0 3.0 0.00 0.39 0.39 49 1008.5
20260508030559 51 239 0.0 5.0 0.00 0.39 0.39 50 1008.5
20260508025603 51 275 1.0 5.0 0.00 0.39 0.39 50 1008.6
20260508025101 51 244 0.0 5.0 0.00 0.39 0.39 50 1008.6
20260508024604 51 228 1.0 5.0 0.00 0.39 0.39 51 1008.6
20260508024101 51 0 1.0 5.0 0.00 0.39 0.39 50 1008.5
20260508023558 50 260 1.0 3.0 0.00 0.39 0.39 53 1008.5
20260508023057 50 215 1.0 8.0 0.00 0.39 0.39 50 1008.5
20260508022558 50 0 0.0 8.0 0.00 0.39 0.39 51 1008.5
20260508022101 50 238 1.0 8.0 0.00 0.39 0.39 51 1008.4
20260508021600 50 246 1.0 2.0 0.00 0.39 0.39 53 1008.6
20260508021058 50 0 1.0 3.0 0.00 0.39 0.39 51 1008.6
20260508020600 50 230 0.0 3.0 0.00 0.39 0.39 51 1008.5
20260508020109 50 240 1.0 3.0 0.00 0.39 0.39 53 1008.6
20260508015600 51 0 0.0 4.0 0.00 0.39 0.39 52 1008.6
20260508015100 51 0 0.0 4.0 0.00 0.39 0.39 50 1008.5
20260508014600 51 0 0.0 3.0 0.00 0.39 0.39 50 1008.5
20260508014102 51 0 0.0 3.0 0.00 0.39 0.39 52 1008.5
20260508013603 52 0 0.0 2.0 0.00 0.39 0.39 48 1008.4
20260508013101 52 250 1.0 3.0 0.00 0.39 0.39 49 1008.3
20260508012604 52 229 1.0 3.0 0.00 0.39 0.39 50 1008.3
20260508012104 52 0 0.0 3.0 0.00 0.39 0.39 49 1008.3
20260508011558 52 228 1.0 3.0 0.00 0.39 0.39 47 1008.3
20260508011101 53 231 0.0 3.0 0.00 0.39 0.39 46 1008.1
20260508010601 53 231 1.0 5.0 0.00 0.39 0.39 48 1008.1
20260508010127 53 0 1.0 5.0 0.00 0.39 0.39 48 1007.9
20260508005602 53 224 1.0 7.0 0.00 0.39 0.39 45 1008.0
20260508005101 54 256 1.0 7.0 0.00 0.39 0.39 44 1007.8
20260508004557 54 0 1.0 4.0 0.00 0.39 0.39 44 1007.8
20260508004101 54 218 1.0 4.0 0.00 0.39 0.39 45 1007.8
20260508003601 54 0 0.0 4.0 0.00 0.39 0.39 46 1007.5
20260508003117 54 232 2.0 4.0 0.00 0.39 0.39 42 1007.2
20260508002604 54 0 1.0 4.0 0.00 0.39 0.39 43 1006.9
20260508002103 54 248 1.0 3.0 0.00 0.39 0.39 43 1007.0
20260508001603 55 0 0.0 3.0 0.00 0.39 0.39 46 1006.9
20260508001101 55 215 1.0 4.0 0.00 0.39 0.39 44 1006.9
20260508000601 56 0 1.0 4.0 0.00 0.39 0.39 41 1006.9
20260508000101 56 257 0.0 4.0 0.00 0.39 0.39 42 1006.8
20260507235601 56 299 1.0 3.0 0.00 0.42 0.39 39 1006.7
20260507235100 56 269 0.0 3.0 0.00 0.42 0.39 42 1006.8
20260507234600 57 0 1.0 8.0 0.00 0.42 0.39 38 1006.6
20260507234100 57 294 1.0 8.0 0.00 0.42 0.39 37 1006.6
20260507233601 58 288 2.0 8.0 0.00 0.42 0.39 36 1006.6
20260507233104 58 267 1.0 12.0 0.00 0.42 0.39 36 1006.5
20260507232601 58 272 4.0 12.0 0.00 0.42 0.39 36 1006.5
20260507232100 58 296 3.0 11.0 0.00 0.42 0.39 35 1006.4
20260507231601 59 225 3.0 8.0 0.00 0.42 0.39 35 1006.4
20260507231101 59 237 2.0 8.0 0.00 0.42 0.39 34 1006.3
20260507230603 59 256 1.0 10.0 0.00 0.42 0.39 35 1006.4
20260507230113 59 192 2.0 10.0 0.00 0.42 0.39 34 1006.2
20260507225601 60 246 2.0 9.0 0.00 0.45 0.39 33 1006.2
20260507225101 60 200 4.0 9.0 0.00 0.45 0.39 32 1006.2
20260507224600 60 223 2.0 9.0 0.00 0.45 0.39 33 1006.1
20260507224104 60 309 2.0 9.0 0.00 0.45 0.39 34 1006.0
20260507223601 61 263 3.0 13.0 0.00 0.45 0.39 32 1005.9
20260507223210 61 294 4.0 13.0 0.00 0.45 0.39 33 1005.8
20260507222600 61 229 3.0 11.0 0.00 0.45 0.39 32 1005.7
20260507222100 61 263 4.0 14.0 0.00 0.45 0.39 32 1005.7
20260507221559 62 252 5.0 14.0 0.00 0.45 0.39 30 1005.7
20260507221100 62 263 4.0 11.0 0.00 0.45 0.39 33 1005.7
20260507220601 62 251 5.0 10.0 0.00 0.45 0.39 32 1005.6
20260507220058 62 288 3.0 10.0 0.00 0.45 0.39 33 1005.6
20260507215601 62 309 1.0 8.0 0.00 0.46 0.39 33 1005.5
20260507215103 62 288 3.0 8.0 0.00 0.46 0.39 32 1005.6
20260507214611 62 248 3.0 8.0 0.00 0.46 0.39 32 1005.6
20260507214102 62 300 3.0 8.0 0.00 0.46 0.39 32 1005.5
20260507213602 62 338 1.0 8.0 0.00 0.46 0.39 31 1005.3
20260507213149 62 223 3.0 11.0 0.00 0.46 0.39 31 1005.4
20260507212601 63 260 4.0 11.0 0.00 0.46 0.39 31 1005.3
20260507212101 63 210 3.0 11.0 0.00 0.46 0.39 32 1005.2
20260507211600 63 300 2.0 7.0 0.00 0.46 0.39 32 1005.2
20260507211100 63 199 1.0 13.0 0.00 0.46 0.39 33 1005.2
20260507210600 63 272 3.0 13.0 0.00 0.46 0.39 33 1005.3
20260507210105 64 271 5.0 13.0 0.00 0.46 0.39 32 1005.1
20260507205601 64 242 3.0 9.0 0.00 0.47 0.39 32 1004.9
20260507205100 64 344 2.0 8.0 0.00 0.47 0.39 33 1005.0
20260507204558 64 203 2.0 8.0 0.00 0.47 0.39 33 1004.9
20260507204104 64 0 4.0 10.0 0.00 0.47 0.39 33 1005.0
20260507203601 64 298 3.0 10.0 0.00 0.47 0.39 31 1004.9
20260507203101 64 320 3.0 13.0 0.00 0.47 0.39 31 1005.0
20260507202559 64 342 2.0 13.0 0.00 0.47 0.39 31 1005.0
20260507202059 65 284 5.0 13.0 0.00 0.47 0.39 29 1005.0
20260507201620 66 229 1.0 7.0 0.00 0.47 0.39 30 1004.9
20260507201057 65 301 3.0 7.0 0.00 0.47 0.39 31 1005.0
20260507200556 65 214 3.0 13.0 0.00 0.47 0.39 30 1005.1
20260507200109 65 286 3.0 13.0 0.00 0.47 0.39 31 1005.0
20260507195558 65 302 2.0 8.0 0.00 0.50 0.39 30 1005.1
20260507195057 65 54 3.0 8.0 0.00 0.50 0.39 32 1005.1
20260507194557 65 234 4.0 9.0 0.00 0.50 0.39 30 1005.2
20260507194057 65 194 3.0 10.0 0.00 0.50 0.39 30 1005.2
20260507193557 65 252 4.0 10.0 0.00 0.50 0.39 34 1005.3
20260507193058 65 213 4.0 9.0 0.00 0.50 0.39 32 1005.3
20260507192559 65 235 3.0 9.0 0.00 0.50 0.39 32 1005.4
20260507192056 64 244 3.0 11.0 0.00 0.50 0.39 33 1005.4
20260507191557 64 266 5.0 11.0 0.00 0.50 0.39 32 1005.7
20260507191108 64 333 5.0 11.0 0.00 0.50 0.39 32 1005.8
20260507190601 65 249 4.0 10.0 0.00 0.50 0.39 34 1005.8
20260507185600 66 233 1.0 12.0 0.00 0.50 0.39 34 1005.8
20260507185100 65 227 2.0 9.0 0.00 0.50 0.39 33 1005.9
20260507184558 65 327 3.0 12.0 0.00 0.50 0.39 34 1006.1
20260507184100 65 288 4.0 12.0 0.00 0.50 0.39 33 1006.1
20260507183603 65 257 2.0 10.0 0.00 0.50 0.39 35 1006.3
20260507183059 64 0 4.0 10.0 0.00 0.50 0.39 37 1006.2
20260507182600 65 240 2.0 13.0 0.00 0.50 0.39 35 1006.4
20260507182100 64 218 6.0 13.0 0.00 0.50 0.39 37 1006.6
20260507181606 63 220 4.0 13.0 0.00 0.50 0.39 33 1006.6
20260507181100 63 319 4.0 13.0 0.00 0.50 0.39 32 1006.6
20260507180603 63 344 4.0 14.0 0.00 0.50 0.39 34 1006.6
20260507180059 63 340 6.0 14.0 0.00 0.50 0.39 32 1006.7
20260507175601 63 15 5.0 14.0 0.00 0.50 0.39 34 1006.6
20260507175101 64 265 4.0 9.0 0.00 0.50 0.39 39 1006.6
20260507174603 65 279 1.0 7.0 0.00 0.50 0.39 40 1006.6
20260507174100 65 194 2.0 11.0 0.00 0.50 0.39 45 1006.6
20260507173600 63 296 1.0 11.0 0.00 0.50 0.39 43 1006.7
20260507173102 63 280 3.0 8.0 0.00 0.50 0.39 44 1006.8
20260507172603 64 267 4.0 8.0 0.00 0.50 0.39 42 1006.7
20260507172102 64 203 2.0 8.0 0.00 0.50 0.39 50 1006.7
20260507171606 64 271 4.0 12.0 0.00 0.50 0.39 45 1007.0
20260507171101 64 304 3.0 12.0 0.00 0.50 0.39 45 1007.0
20260507170604 64 336 2.0 8.0 0.00 0.50 0.39 46 1007.0
20260507170059 65 246 3.0 7.0 0.00 0.50 0.39 51 1007.2
20260507165600 64 232 2.0 8.0 0.00 0.50 0.39 50 1007.2
20260507165101 63 189 2.0 9.0 0.00 0.50 0.39 49 1007.2
20260507164604 63 218 4.0 9.0 0.00 0.50 0.39 49 1007.3
20260507164101 63 182 2.0 9.0 0.00 0.50 0.39 53 1007.3
20260507163602 63 298 2.0 9.0 0.00 0.50 0.39 49 1007.4
20260507163100 63 214 1.0 7.0 0.00 0.50 0.39 55 1007.5
20260507162559 62 196 3.0 7.0 0.00 0.50 0.39 54 1007.5
20260507162058 61 215 2.0 8.0 0.00 0.50 0.39 57 1007.5
20260507161611 60 259 3.0 8.0 0.00 0.50 0.39 56 1007.6
20260507161101 61 313 3.0 7.0 0.00 0.50 0.39 56 1007.6
20260507160601 61 162 4.0 7.0 0.00 0.50 0.39 60 1007.6
20260507160112 61 249 2.0 7.0 0.00 0.50 0.39 59 1007.8
20260507155623 61 176 2.0 7.0 0.00 0.50 0.39 58 1007.8
20260507155059 61 265 3.0 9.0 0.00 0.50 0.39 59 1007.9
20260507154601 60 309 4.0 9.0 0.00 0.50 0.39 59 1008.0
20260507154100 60 314 0.0 6.0 0.00 0.50 0.39 61 1008.1
20260507153600 59 213 3.0 10.0 0.00 0.50 0.39 61 1008.1
20260507153114 60 268 4.0 10.0 0.00 0.50 0.39 62 1008.1
20260507152602 60 291 2.0 10.0 0.00 0.50 0.39 60 1008.1
20260507152059 59 154 1.0 10.0 0.00 0.50 0.39 64 1008.1
20260507151601 60 223 3.0 12.0 0.00 0.50 0.39 59 1008.2
20260507151101 59 267 3.0 12.0 0.00 0.50 0.39 59 1008.3
20260507150602 59 332 4.0 12.0 0.00 0.50 0.39 59 1008.3
20260507150109 59 325 2.0 8.0 0.00 0.50 0.39 61 1008.3
20260507145601 59 315 3.0 8.0 0.00 0.50 0.39 61 1008.4
20260507145104 58 237 2.0 8.0 0.00 0.50 0.39 60 1008.4
20260507144558 58 213 4.0 9.0 0.00 0.50 0.39 59 1008.3
20260507144100 58 350 3.0 9.0 0.00 0.50 0.39 61 1008.3
20260507143601 58 0 3.0 9.0 0.00 0.50 0.39 60 1008.3
20260507143101 58 0 3.0 8.0 0.00 0.50 0.39 65 1008.2
20260507142601 57 262 3.0 6.0 0.00 0.50 0.39 65 1008.3
20260507142102 57 221 1.0 8.0 0.00 0.50 0.39 70 1008.4
20260507141603 57 56 2.0 8.0 0.00 0.50 0.39 70 1008.5
20260507141101 56 312 4.0 8.0 0.00 0.50 0.39 69 1008.6
20260507140601 56 219 2.0 7.0 0.00 0.50 0.39 72 1008.6
20260507140059 56 255 2.0 9.0 0.00 0.50 0.39 74 1008.6
20260507135604 55 202 2.0 9.0 0.00 0.50 0.39 77 1008.7
20260507135104 54 305 3.0 9.0 0.00 0.50 0.39 79 1008.6
20260507134611 54 242 2.0 8.0 0.00 0.50 0.39 82 1008.5
20260507134101 54 306 2.0 8.0 0.00 0.50 0.39 86 1008.4
20260507133601 53 222 3.0 9.0 0.00 0.50 0.39 88 1008.6
20260507133101 53 251 2.0 9.0 0.00 0.50 0.39 89 1008.6
20260507132559 52 277 1.0 7.0 0.00 0.50 0.39 91 1008.8
20260507132059 51 229 2.0 7.0 0.00 0.50 0.39 91 1008.7
20260507131601 52 266 2.0 9.0 0.00 0.50 0.39 92 1008.6
20260507131102 51 304 2.0 9.0 0.00 0.50 0.39 92 1008.5
20260507130559 51 236 1.0 4.0 0.00 0.50 0.39 93 1008.7
20260507130110 51 0 1.0 5.0 0.00 0.50 0.39 94 1008.7
20260507125601 51 0 1.0 5.0 0.00 0.50 0.39 93 1008.6
20260507125103 50 284 2.0 5.0 0.00 0.50 0.39 93 1008.6
20260507124620 50 0 0.0 3.0 0.01 0.50 0.39 94 1008.7
20260507124101 50 0 0.0 3.0 0.01 0.50 0.39 93 1008.7
20260507123601 50 0 1.0 3.0 0.01 0.50 0.39 94 1008.7
20260507123110 49 0 0.0 2.0 0.01 0.50 0.39 94 1008.6
20260507122559 49 0 0.0 0.0 0.02 0.50 0.39 93 1009.0
20260507122057 49 0 0.0 1.0 0.02 0.50 0.39 94 1009.0
20260507121604 49 0 0.0 1.0 0.03 0.50 0.39 94 1009.0
20260507121059 49 0 0.0 3.0 0.03 0.50 0.39 94 1009.0
20260507120559 49 0 0.0 3.0 0.04 0.50 0.39 94 1008.7
20260507115559 48 0 0.0 0.0 0.04 0.50 0.39 94 1008.6
20260507115101 48 0 0.0 0.0 0.05 0.50 0.39 93 1008.6
20260507114604 48 0 0.0 1.0 0.04 0.49 0.38 93 1008.6
20260507114101 48 0 0.0 2.0 0.04 0.49 0.38 93 1008.7
20260507113601 47 0 0.0 2.0 0.04 0.49 0.38 93 1008.5
20260507113100 47 0 0.0 2.0 0.04 0.49 0.38 93 1008.6
20260507112601 47 223 0.0 3.0 0.03 0.48 0.37 93 1008.9
20260507112104 47 0 1.0 7.0 0.03 0.48 0.37 93 1008.9
20260507111558 47 232 1.0 7.0 0.03 0.47 0.36 93 1008.5
20260507111059 47 325 2.0 6.0 0.03 0.47 0.36 93 1008.4
20260507110559 48 306 0.0 2.0 0.02 0.46 0.35 93 1008.8
20260507105600 48 279 0.0 2.0 0.03 0.46 0.35 93 1008.7
20260507105059 48 298 0.0 5.0 0.02 0.45 0.34 93 1008.3
20260507104558 48 261 1.0 5.0 0.03 0.45 0.34 93 1008.1
20260507104059 48 14 0.0 2.0 0.03 0.45 0.34 93 1007.9
20260507103600 48 0 0.0 3.0 0.03 0.45 0.34 93 1008.1
20260507103114 48 0 0.0 4.0 0.03 0.45 0.34 93 1008.1
20260507102559 47 292 0.0 4.0 0.03 0.45 0.34 93 1008.5
20260507102100 48 0 0.0 3.0 0.03 0.45 0.34 93 1008.5
20260507101603 48 265 0.0 4.0 0.02 0.44 0.33 93 1008.4
20260507101100 48 0 1.0 4.0 0.03 0.44 0.33 93 1008.5
20260507100559 48 257 0.0 3.0 0.03 0.44 0.33 93 1008.7
20260507100113 48 295 1.0 3.0 0.02 0.43 0.32 93 1008.4
20260507095603 48 307 0.0 4.0 0.02 0.43 0.32 93 1008.2
20260507095101 48 309 0.0 4.0 0.02 0.43 0.32 93 1008.2
20260507094559 48 291 1.0 4.0 0.01 0.42 0.31 93 1008.1
20260507094059 48 279 1.0 8.0 0.02 0.42 0.31 93 1008.2
20260507093601 48 287 2.0 8.0 0.02 0.42 0.31 93 1008.1
20260507093100 48 257 1.0 4.0 0.02 0.42 0.31 93 1008.2
20260507092559 48 272 2.0 8.0 0.03 0.42 0.31 93 1008.0
20260507092059 48 267 2.0 8.0 0.04 0.42 0.31 93 1007.8
20260507091600 49 298 1.0 4.0 0.04 0.42 0.31 93 1007.8
20260507091101 49 217 1.0 6.0 0.04 0.41 0.30 94 1008.5
20260507090600 49 248 1.0 6.0 0.07 0.41 0.30 93 1008.3
20260507090100 49 244 1.0 4.0 0.10 0.41 0.30 93 1008.0
20260507085600 49 226 2.0 10.0 0.12 0.41 0.30 93 1007.8
20260507085100 50 254 2.0 10.0 0.15 0.41 0.30 93 1007.4
20260507084601 50 219 3.0 10.0 0.17 0.41 0.30 94 1007.7
20260507084059 51 254 0.0 0.0 0.19 0.40 0.29 94 1007.6
20260507083559 51 0 0.0 0.0 0.24 0.40 0.29 94 1007.4
20260507083120 52 0 0.0 2.0 0.27 0.40 0.29 94 1007.5
20260507082600 52 0 0.0 4.0 0.28 0.39 0.28 94 1007.6
20260507082059 52 360 0.0 4.0 0.27 0.38 0.27 94 1007.5
20260507081605 52 0 0.0 6.0 0.27 0.38 0.27 94 1007.5
20260507081059 52 297 0.0 7.0 0.26 0.37 0.26 94 1007.7
20260507080600 52 274 1.0 7.0 0.23 0.34 0.23 94 1007.6
20260507080059 52 345 2.0 8.0 0.20 0.31 0.20 94 1007.7
20260507075602 52 0 1.0 8.0 0.18 0.29 0.18 93 1008.1
20260507075100 53 273 3.0 7.0 0.15 0.26 0.15 93 1007.6
20260507074616 53 249 2.0 7.0 0.13 0.24 0.13 94 1007.7
20260507074059 54 240 2.0 7.0 0.10 0.21 0.10 93 1007.1
20260507073600 54 16 1.0 7.0 0.05 0.16 0.05 94 1006.8
20260507073102 55 277 2.0 7.0 0.01 0.12 0.01 94 1006.6
20260507072559 55 224 1.0 4.0 0.00 0.11 0.00 94 1006.3
20260507072058 55 294 0.0 2.0 0.00 0.11 0.00 94 1006.1
20260507071600 55 210 0.0 1.0 0.00 0.11 0.00 94 1006.4
20260507071058 55 0 0.0 0.0 0.00 0.11 0.00 94 1006.3
20260507070601 55 0 0.0 0.0 0.00 0.11 0.00 94 1006.4
20260507070104 55 0 0.0 0.0 0.00 0.11 0.00 94 1006.4
20260507065559 55 0 0.0 0.0 0.00 0.11 0.00 94 1006.4